CW7615 Weather Reports


Display with metric or nautical units.
time (UTC)temp
F
wind
direction
speed
MPH
gust
MPH
rain 1hr
in
rain 24hr
in
rain mn
in
humidity
%
barometer
mb
20260507152513 67 111 6.0 13.0 0.00 0.00 0.00 65 1010.2
20260507152012 68 104 8.0 13.0 0.00 0.00 0.00 65 1010.3
20260507151512 68 142 7.0 13.0 0.00 0.00 0.00 65 1010.2
20260507151012 68 146 3.0 11.0 0.00 0.00 0.00 66 1010.2
20260507150516 68 125 6.0 12.0 0.00 0.00 0.00 66 1010.4
20260507150011 69 142 8.0 12.0 0.00 0.00 0.00 65 1010.3
20260507145518 70 176 4.0 9.0 0.00 0.00 0.00 64 1010.4
20260507145010 69 164 2.0 5.0 0.00 0.00 0.00 63 1010.3
20260507144514 68 5 2.0 4.0 0.00 0.00 0.00 59 1010.5
20260507144010 67 137 1.0 4.0 0.00 0.00 0.00 59 1010.4
20260507143510 67 143 1.0 8.0 0.00 0.00 0.00 59 1010.6
20260507143009 68 130 4.0 8.0 0.00 0.00 0.00 62 1010.6
20260507142509 68 128 2.0 8.0 0.00 0.00 0.00 61 1010.7
20260507142017 68 123 2.0 6.0 0.00 0.00 0.00 63 1010.7
20260507141510 69 128 2.0 6.0 0.00 0.00 0.00 60 1010.9
20260507141009 69 56 2.0 6.0 0.00 0.00 0.00 58 1011.0
20260507140508 70 350 2.0 6.0 0.00 0.00 0.00 59 1011.0
20260507140008 70 78 1.0 8.0 0.00 0.00 0.00 60 1011.1
20260507135505 69 322 4.0 8.0 0.00 0.00 0.00 61 1011.3
20260507135004 68 16 3.0 8.0 0.00 0.00 0.00 65 1011.4
20260507134503 67 36 3.0 9.0 0.00 0.00 0.00 66 1011.5
20260507134005 66 91 5.0 9.0 0.00 0.00 0.00 70 1011.7
20260507133600 65 27 4.0 7.0 0.00 0.00 0.00 73 1011.6
20260507133059 63 161 1.0 4.0 0.00 0.00 0.00 77 1011.8
20260507132600 63 117 1.0 4.0 0.00 0.00 0.00 77 1011.8
20260507132056 62 115 2.0 4.0 0.00 0.00 0.00 78 1011.9
20260507131557 62 115 0.0 3.0 0.00 0.00 0.00 78 1011.9
20260507131057 62 111 0.0 3.0 0.00 0.00 0.00 79 1012.0
20260507130557 61 109 1.0 3.0 0.00 0.00 0.00 80 1012.1
20260507130108 61 109 1.0 3.0 0.00 0.00 0.00 80 1012.1
20260507125556 61 109 0.0 4.0 0.00 0.00 0.00 79 1012.2
20260507125058 61 109 1.0 4.0 0.00 0.00 0.00 79 1012.2
20260507124559 61 109 0.0 4.0 0.00 0.00 0.00 80 1012.2
20260507124056 61 109 1.0 6.0 0.00 0.00 0.00 80 1012.3
20260507123555 61 112 3.0 6.0 0.00 0.00 0.00 81 1012.3
20260507123055 61 138 1.0 3.0 0.00 0.00 0.00 81 1012.2
20260507122556 61 161 1.0 5.0 0.00 0.00 0.00 81 1012.3
20260507122055 61 161 0.0 6.0 0.00 0.00 0.00 81 1012.4
20260507121555 61 162 2.0 6.0 0.00 0.00 0.00 80 1012.3
20260507121058 61 186 2.0 6.0 0.00 0.00 0.00 80 1012.5
20260507120555 61 146 2.0 7.0 0.00 0.00 0.00 81 1012.4
20260507120054 61 132 2.0 8.0 0.00 0.00 0.00 81 1012.5
20260507115554 61 167 3.0 8.0 0.00 0.00 0.00 82 1012.5
20260507115053 61 128 3.0 5.0 0.00 0.00 0.00 83 1012.5
20260507114557 61 158 1.0 7.0 0.00 0.00 0.00 84 1012.5
20260507114053 61 134 2.0 8.0 0.00 0.00 0.00 83 1012.5
20260507113552 61 117 3.0 9.0 0.00 0.00 0.00 83 1012.6
20260507113052 61 127 4.0 11.0 0.00 0.00 0.00 82 1012.6
20260507112553 61 114 8.0 14.0 0.00 0.00 0.00 80 1012.6
20260507112053 62 115 9.0 14.0 0.00 0.00 0.00 78 1012.5
20260507111552 62 143 8.0 12.0 0.00 0.00 0.00 77 1012.6
20260507111055 63 121 7.0 13.0 0.00 0.00 0.00 75 1012.6
20260507110551 63 120 7.0 12.0 0.00 0.00 0.00 74 1012.5
20260507110053 63 134 5.0 12.0 0.00 0.00 0.00 72 1012.5
20260507105550 63 119 6.0 12.0 0.00 0.00 0.00 70 1012.5
20260507105053 63 111 4.0 11.0 0.00 0.00 0.00 70 1012.4
20260507104553 63 134 5.0 9.0 0.00 0.00 0.00 69 1012.4
20260507104049 63 139 2.0 11.0 0.00 0.00 0.00 69 1012.4
20260507103548 62 122 4.0 11.0 0.00 0.00 0.00 68 1012.4
20260507103047 62 78 3.0 13.0 0.00 0.00 0.00 70 1012.4
20260507102547 62 121 5.0 13.0 0.00 0.00 0.00 71 1012.3
20260507102047 61 170 5.0 14.0 0.00 0.00 0.00 72 1012.3
20260507101550 61 117 5.0 14.0 0.00 0.00 0.00 74 1012.2
20260507101050 61 86 7.0 13.0 0.00 0.00 0.00 75 1012.3
20260507100545 61 165 7.0 13.0 0.00 0.00 0.00 76 1012.2
20260507100045 61 104 5.0 16.0 0.00 0.00 0.00 76 1012.2
20260507095545 60 112 6.0 16.0 0.00 0.00 0.00 79 1012.3
20260507095044 60 92 6.0 16.0 0.00 0.00 0.00 81 1012.2
20260507094547 59 121 8.0 14.0 0.00 0.00 0.00 86 1012.3
20260507094045 60 151 5.0 16.0 0.00 0.00 0.00 87 1012.2
20260507093542 60 82 4.0 17.0 0.00 0.00 0.00 86 1012.1
20260507093045 60 123 9.0 17.0 0.00 0.00 0.00 84 1012.2
20260507092541 61 91 3.0 10.0 0.00 0.00 0.00 84 1012.0
20260507092041 61 143 5.0 10.0 0.00 0.00 0.00 84 1011.9
20260507091542 61 182 4.0 10.0 0.00 0.00 0.00 85 1011.7
20260507091040 61 177 2.0 5.0 0.00 0.00 0.00 85 1011.7
20260507090540 62 159 1.0 10.0 0.00 0.00 0.00 85 1011.8
20260507090040 62 80 6.0 10.0 0.00 0.00 0.00 85 1011.8
20260507085540 62 123 4.0 12.0 0.00 0.00 0.00 84 1011.7
20260507085044 62 36 6.0 12.0 0.00 0.00 0.00 84 1011.7
20260507084543 62 121 5.0 10.0 0.00 0.00 0.00 83 1011.7
20260507084038 63 104 5.0 10.0 0.00 0.00 0.00 84 1011.7
20260507083537 63 126 4.0 10.0 0.00 0.00 0.00 83 1011.7
20260507083038 62 109 4.0 9.0 0.00 0.00 0.00 83 1011.7
20260507082535 62 128 4.0 9.0 0.00 0.00 0.00 83 1011.6
20260507082041 62 117 6.0 9.0 0.00 0.00 0.00 83 1011.6
20260507081637 62 86 4.0 9.0 0.00 0.00 0.00 83 1011.6
20260507081034 62 152 4.0 9.0 0.00 0.00 0.00 82 1011.7
20260507080534 62 114 4.0 8.0 0.00 0.00 0.00 82 1011.5
20260507080038 62 157 1.0 4.0 0.00 0.00 0.00 82 1011.6
20260507075532 62 148 1.0 8.0 0.00 0.00 0.00 81 1011.6
20260507075036 62 135 3.0 8.0 0.00 0.00 0.00 81 1011.5
20260507074532 62 121 2.0 6.0 0.00 0.00 0.00 81 1011.5
20260507074030 62 152 1.0 4.0 0.00 0.00 0.00 81 1011.4
20260507073532 62 126 1.0 4.0 0.00 0.00 0.00 81 1011.4
20260507073029 62 108 0.0 3.0 0.00 0.00 0.00 81 1011.4
20260507072529 62 19 0.0 0.0 0.00 0.00 0.00 81 1011.4
20260507072027 62 355 0.0 0.0 0.00 0.00 0.00 81 1011.4
20260507071527 62 355 0.0 1.0 0.00 0.00 0.00 80 1011.3
20260507071025 61 355 0.0 1.0 0.00 0.00 0.00 80 1011.3
20260507070530 61 355 0.0 2.0 0.00 0.00 0.00 79 1011.4
20260507070026 61 355 0.0 2.0 0.00 0.00 0.00 79 1011.3
20260507065523 61 355 0.0 2.0 0.00 0.00 0.00 78 1011.2
20260507065023 61 355 0.0 1.0 0.00 0.00 0.00 79 1011.2
20260507064523 61 355 0.0 3.0 0.00 0.00 0.00 77 1011.1
20260507064022 61 355 0.0 3.0 0.00 0.00 0.00 76 1010.9
20260507063521 61 355 0.0 2.0 0.00 0.00 0.00 77 1010.9
20260507063020 60 355 1.0 2.0 0.00 0.00 0.00 76 1010.8
20260507062518 60 355 0.0 3.0 0.00 0.00 0.00 77 1010.8
20260507062018 60 355 0.0 4.0 0.00 0.00 0.00 73 1010.8
20260507061517 60 355 2.0 5.0 0.00 0.00 0.00 72 1010.8
20260507061018 59 355 3.0 5.0 0.00 0.00 0.00 72 1010.8
20260507060516 59 5 0.0 3.0 0.00 0.00 0.00 73 1010.9
20260507060026 59 5 0.0 4.0 0.00 0.00 0.00 72 1010.9
20260507055520 59 5 0.0 5.0 0.00 0.00 0.00 72 1010.7
20260507055014 59 360 3.0 5.0 0.00 0.00 0.00 72 1010.6
20260507054512 59 355 3.0 5.0 0.00 0.00 0.00 72 1010.7
20260507054013 59 350 3.0 4.0 0.00 0.00 0.00 72 1010.6
20260507053513 59 355 2.0 4.0 0.00 0.00 0.00 72 1010.5
20260507053011 59 340 1.0 6.0 0.00 0.00 0.00 72 1010.5
20260507052511 59 355 3.0 6.0 0.00 0.00 0.00 72 1010.4
20260507052018 59 327 4.0 6.0 0.00 0.00 0.00 72 1010.4
20260507051511 59 355 3.0 6.0 0.00 0.00 0.00 71 1010.4
20260507051010 59 333 2.0 6.0 0.00 0.00 0.00 71 1010.3
20260507050509 59 355 2.0 6.0 0.00 0.00 0.00 71 1010.4
20260507050010 59 355 2.0 4.0 0.00 0.00 0.00 72 1010.4
20260507045510 59 322 0.0 3.0 0.00 0.00 0.00 75 1010.2
20260507045010 59 322 0.0 3.0 0.00 0.00 0.00 77 1010.3
20260507044525 59 297 0.0 2.0 0.00 0.00 0.00 76 1010.3
20260507044009 59 329 0.0 3.0 0.00 0.00 0.00 73 1010.1
20260507043509 59 330 1.0 4.0 0.00 0.00 0.00 70 1010.1
20260507043010 59 350 1.0 9.0 0.00 0.00 0.00 69 1010.0
20260507042507 58 293 5.0 9.0 0.00 0.00 0.00 68 1010.0
20260507042008 58 355 4.0 6.0 0.00 0.00 0.00 67 1009.9
20260507041508 58 345 3.0 6.0 0.00 0.00 0.00 67 1010.0
20260507041008 58 348 3.0 5.0 0.00 0.00 0.00 67 1009.9
20260507040508 58 5 4.0 6.0 0.00 0.00 0.00 67 1009.8
20260507040008 58 351 4.0 6.0 0.00 0.00 0.00 67 1009.8
20260507035507 58 5 4.0 6.0 0.00 0.00 0.00 68 1009.8
20260507035007 58 15 3.0 6.0 0.00 0.00 0.00 67 1009.9
20260507034506 58 5 3.0 6.0 0.00 0.00 0.00 67 1009.8
20260507034006 58 360 4.0 6.0 0.00 0.00 0.00 67 1009.8
20260507033505 58 5 4.0 8.0 0.00 0.00 0.00 67 1009.9
20260507033004 59 19 5.0 8.0 0.00 0.00 0.00 67 1010.0
20260507032504 58 355 5.0 9.0 0.00 0.00 0.00 67 1010.1
20260507032003 58 350 4.0 9.0 0.00 0.00 0.00 67 1010.1
20260507031503 58 360 6.0 9.0 0.00 0.00 0.00 66 1010.2
20260507031004 58 5 5.0 9.0 0.00 0.00 0.00 67 1010.2
20260507030503 58 17 6.0 9.0 0.00 0.00 0.00 67 1010.2
20260507030004 58 360 5.0 9.0 0.00 0.00 0.00 67 1010.3
20260507025503 58 350 5.0 9.0 0.00 0.00 0.00 67 1010.2
20260507025003 57 355 6.0 9.0 0.00 0.00 0.00 67 1010.3
20260507024502 57 355 5.0 9.0 0.00 0.00 0.00 67 1010.3
20260507024002 57 355 5.0 10.0 0.00 0.00 0.00 67 1010.2
20260507023500 57 350 7.0 10.0 0.00 0.00 0.00 66 1010.2
20260507023100 57 10 5.0 9.0 0.00 0.00 0.00 66 1010.2
20260507022559 57 351 4.0 9.0 0.00 0.00 0.00 67 1010.3
20260507022059 57 360 4.0 9.0 0.00 0.00 0.00 67 1010.2
20260507021559 57 333 4.0 9.0 0.00 0.00 0.00 67 1010.1
20260507021057 57 346 4.0 9.0 0.00 0.00 0.00 67 1010.2
20260507020555 57 355 4.0 9.0 0.00 0.00 0.00 67 1010.2
20260507020157 57 355 5.0 9.0 0.00 0.00 0.00 67 1010.3
20260507015553 57 355 3.0 5.0 0.00 0.00 0.00 67 1010.3
20260507015056 57 343 2.0 6.0 0.00 0.00 0.00 67 1010.5
20260507014554 58 345 3.0 6.0 0.00 0.00 0.00 66 1010.3
20260507014053 58 5 3.0 6.0 0.00 0.00 0.00 65 1010.3
20260507013553 58 313 2.0 6.0 0.00 0.00 0.00 66 1010.3
20260507013059 58 313 3.0 6.0 0.00 0.00 0.00 66 1010.3
20260507012551 58 333 1.0 6.0 0.00 0.00 0.00 65 1010.2
20260507012052 58 314 3.0 8.0 0.00 0.00 0.00 65 1010.2
20260507011555 58 315 4.0 8.0 0.00 0.00 0.00 65 1010.3
20260507011051 58 340 4.0 6.0 0.00 0.00 0.00 65 1010.3
20260507010550 58 340 2.0 6.0 0.00 0.00 0.00 65 1010.3
20260507010049 58 347 3.0 8.0 0.00 0.00 0.00 65 1010.3
20260507005550 58 360 4.0 9.0 0.00 0.00 0.00 66 1010.2
20260507005047 58 5 5.0 8.0 0.00 0.00 0.00 66 1010.2
20260507004548 58 9 4.0 10.0 0.00 0.00 0.00 66 1010.2
20260507004046 58 15 4.0 10.0 0.00 0.00 0.00 67 1010.2
20260507003550 58 355 6.0 10.0 0.00 0.00 0.00 67 1010.3
20260507003046 58 5 4.0 9.0 0.00 0.00 0.00 68 1010.3
20260507002544 59 349 4.0 9.0 0.00 0.00 0.00 68 1010.4
20260507002142 59 355 6.0 9.0 0.00 0.00 0.00 68 1010.6
20260507001542 59 355 5.0 9.0 0.00 0.00 0.00 69 1010.6
20260507001038 59 344 3.0 6.0 0.00 0.00 0.00 69 1010.6
20260507000540 59 342 2.0 5.0 0.00 0.00 0.00 69 1010.7
20260507000040 59 344 2.0 5.0 0.00 0.00 0.00 70 1010.7
20260506235537 59 5 3.0 8.0 0.00 0.00 0.00 70 1010.7
20260506235036 59 23 5.0 8.0 0.00 0.00 0.00 70 1010.8
20260506234536 59 325 3.0 5.0 0.00 0.00 0.00 70 1010.9
20260506234035 59 344 3.0 5.0 0.00 0.00 0.00 70 1011.0
20260506233536 59 345 0.0 2.0 0.00 0.00 0.00 71 1011.1
20260506233036 59 344 0.0 4.0 0.00 0.00 0.00 71 1011.1
20260506232533 59 342 1.0 4.0 0.00 0.00 0.00 71 1011.1
20260506232033 59 347 1.0 4.0 0.00 0.00 0.00 71 1011.0
20260506231532 60 337 2.0 4.0 0.00 0.00 0.00 71 1011.0
20260506231033 60 347 2.0 5.0 0.00 0.00 0.00 71 1011.1
20260506230531 60 342 2.0 5.0 0.00 0.00 0.00 71 1011.0
20260506230032 60 351 3.0 5.0 0.00 0.00 0.00 72 1010.9
20260506225530 60 355 0.0 4.0 0.00 0.00 0.00 71 1011.0
20260506225031 60 333 1.0 4.0 0.00 0.00 0.00 71 1011.1
20260506224530 60 348 1.0 4.0 0.00 0.00 0.00 70 1011.1
20260506224028 60 351 1.0 4.0 0.00 0.00 0.00 72 1011.1
20260506223528 60 344 0.0 3.0 0.00 0.00 0.00 74 1011.2
20260506223027 60 344 0.0 2.0 0.00 0.00 0.00 72 1011.1
20260506222531 60 344 0.0 3.0 0.00 0.00 0.00 72 1011.1
20260506222027 61 344 0.0 3.0 0.00 0.00 0.00 74 1011.0
20260506221526 61 344 0.0 1.0 0.00 0.00 0.00 72 1011.1
20260506221024 60 344 0.0 5.0 0.00 0.00 0.00 71 1011.1
20260506220523 60 344 2.0 5.0 0.00 0.00 0.00 71 1011.0
20260506220023 61 350 2.0 4.0 0.00 0.00 0.00 71 1011.0
20260506215523 61 346 2.0 4.0 0.00 0.00 0.00 71 1011.0
20260506215022 61 338 1.0 3.0 0.00 0.00 0.00 72 1011.1
20260506214522 61 332 0.0 1.0 0.00 0.00 0.00 73 1011.1
20260506214022 61 332 0.0 2.0 0.00 0.00 0.00 73 1010.9
20260506213521 61 332 0.0 2.0 0.00 0.00 0.00 73 1011.0
20260506213021 61 331 0.0 0.0 0.00 0.00 0.00 74 1010.9
20260506212522 62 331 0.0 1.0 0.00 0.00 0.00 74 1011.0
20260506212022 62 331 0.0 1.0 0.00 0.00 0.00 75 1011.0
20260506211522 62 331 0.0 1.0 0.00 0.00 0.00 74 1011.0
20260506211020 62 331 0.0 2.0 0.00 0.00 0.00 75 1011.0
20260506210023 62 331 0.0 3.0 0.00 0.00 0.00 75 1010.9
20260506205519 62 331 0.0 3.0 0.00 0.00 0.00 75 1010.9
20260506205023 62 331 1.0 3.0 0.00 0.00 0.00 76 1010.9
20260506204520 62 63 1.0 3.0 0.00 0.00 0.00 76 1010.8
20260506204018 62 130 0.0 1.0 0.00 0.00 0.00 76 1010.9
20260506203518 62 130 0.0 0.0 0.00 0.00 0.00 77 1010.8
20260506203020 62 130 0.0 1.0 0.00 0.00 0.00 77 1010.7
20260506202516 62 130 0.0 1.0 0.00 0.00 0.00 76 1010.7
20260506202021 62 130 0.0 0.0 0.00 0.00 0.00 76 1010.6
20260506201516 62 130 0.0 0.0 0.00 0.00 0.00 76 1010.6
20260506201019 62 130 0.0 0.0 0.00 0.00 0.00 76 1010.4
20260506200522 62 130 0.0 0.0 0.00 0.00 0.00 76 1010.3
20260506200016 63 130 0.0 1.0 0.00 0.00 0.00 76 1010.3
20260506195516 63 130 0.0 2.0 0.00 0.00 0.00 76 1010.2
20260506195016 63 130 0.0 2.0 0.00 0.00 0.00 76 1010.0
20260506194516 63 130 0.0 2.0 0.00 0.00 0.00 76 1009.9
20260506194015 63 130 0.0 2.0 0.00 0.00 0.00 76 1009.7
20260506193515 63 130 0.0 2.0 0.00 0.00 0.00 76 1009.6
20260506193016 63 130 0.0 3.0 0.00 0.00 0.00 76 1009.7
20260506192514 63 129 0.0 3.0 0.00 0.00 0.00 75 1009.7
20260506192014 63 130 0.0 4.0 0.00 0.00 0.00 75 1009.7
20260506191514 63 130 1.0 4.0 0.00 0.00 0.00 74 1009.6
20260506191014 63 124 2.0 6.0 0.00 0.00 0.00 74 1009.7
20260506190512 64 125 2.0 6.0 0.00 0.00 0.00 73 1009.6
20260506190013 64 142 2.0 5.0 0.00 0.00 0.00 71 1009.5
20260506185511 64 132 2.0 5.0 0.00 0.00 0.00 69 1009.6
20260506185016 65 158 2.0 5.0 0.00 0.00 0.00 64 1009.4
20260506184512 65 150 2.0 5.0 0.00 0.00 0.00 63 1009.3
20260506184011 65 138 1.0 4.0 0.00 0.00 0.00 60 1009.2
20260506183511 65 138 1.0 4.0 0.00 0.00 0.00 59 1009.3
20260506183012 65 138 1.0 4.0 0.00 0.00 0.00 58 1009.1
20260506182509 65 138 0.0 3.0 0.00 0.00 0.00 57 1009.0
20260506182011 65 138 1.0 3.0 0.00 0.00 0.00 56 1009.0
20260506181510 65 126 1.0 3.0 0.00 0.00 0.00 56 1008.9
20260506181009 66 126 0.0 0.0 0.00 0.00 0.00 56 1009.1
20260506180509 66 126 0.0 0.0 0.00 0.00 0.00 54 1009.2
20260506180013 66 126 0.0 0.0 0.00 0.00 0.00 54 1009.2
20260506175507 66 126 0.0 1.0 0.00 0.00 0.00 53 1009.3
20260506175007 65 126 0.0 3.0 0.00 0.00 0.00 56 1009.4
20260506174507 65 126 1.0 3.0 0.00 0.00 0.00 58 1009.4
20260506174007 66 126 1.0 5.0 0.00 0.00 0.00 59 1009.7
20260506173507 66 126 2.0 5.0 0.00 0.00 0.00 59 1009.6
20260506173008 66 127 2.0 4.0 0.00 0.00 0.00 59 1009.7
20260506172507 66 128 1.0 5.0 0.00 0.00 0.00 58 1009.8
20260506172008 67 131 2.0 7.0 0.00 0.00 0.00 59 1009.8
20260506171512 67 147 3.0 7.0 0.00 0.00 0.00 59 1009.8
20260506171006 67 101 4.0 7.0 0.00 0.00 0.00 59 1009.8
20260506170505 68 109 4.0 7.0 0.00 0.00 0.00 60 1009.8
20260506170007 68 127 3.0 7.0 0.00 0.00 0.00 59 1009.7
20260506165505 68 140 1.0 7.0 0.00 0.00 0.00 57 1009.6
20260506165005 68 153 3.0 7.0 0.00 0.00 0.00 57 1009.4
20260506164505 69 142 2.0 4.0 0.00 0.00 0.00 56 1009.4
20260506164009 69 145 2.0 5.0 0.00 0.00 0.00 56 1009.5
20260506163507 69 150 2.0 5.0 0.00 0.00 0.00 56 1009.5
20260506163008 69 107 0.0 8.0 0.00 0.00 0.00 55 1009.5
20260506162504 69 115 0.0 6.0 0.00 0.00 0.00 55 1009.6
20260506162105 69 115 2.0 7.0 0.00 0.00 0.00 55 1009.5
20260506161504 68 132 2.0 8.0 0.00 0.00 0.00 56 1009.5
20260506161005 68 108 4.0 11.0 0.00 0.00 0.00 53 1009.7
20260506160503 68 115 6.0 11.0 0.00 0.00 0.00 52 1009.6
20260506160003 69 111 6.0 10.0 0.00 0.00 0.00 51 1009.5
20260506155503 69 98 5.0 10.0 0.00 0.00 0.00 49 1009.4
20260506155003 69 112 4.0 11.0 0.00 0.00 0.00 49 1009.4
20260506154503 69 105 3.0 11.0 0.00 0.00 0.00 50 1009.4
20260506154003 70 134 4.0 11.0 0.00 0.00 0.00 49 1009.4
20260506153503 70 112 6.0 11.0 0.00 0.00 0.00 50 1009.4
20260506153002 70 121 5.0 10.0 0.00 0.00 0.00 49 1009.5